Time,TemperatureF,DewpointF,PressureIn,WindDirection,WindDirectionDegrees,WindSpeedMPH,WindSpeedGustMPH,Humidity,HourlyPrecipIn,Conditions,Clouds,dailyrainin,SoftwareType,DateUTC
2013-05-09 00:01:00,72.3,61.2,30.02,SW,225,0.0,1.0,68,0.00,,,0.00,meteohub,2013-05-09 04:01:00,
2013-05-09 00:02:00,72.3,61.2,30.02,SW,225,0.0,1.0,68,0.00,,,0.00,meteohub,2013-05-09 04:02:00,
2013-05-09 00:03:00,72.3,61.2,30.01,SW,225,0.0,1.0,68,0.00,,,0.00,meteohub,2013-05-09 04:03:00,
2013-05-09 00:04:00,72.1,61.3,30.01,SW,225,0.0,1.0,69,0.00,,,0.00,meteohub,2013-05-09 04:04:00,
2013-05-09 00:09:00,71.8,61.5,30.02,SW,225,0.0,1.0,70,0.00,,,0.00,meteohub,2013-05-09 04:09:00,
2013-05-09 00:14:00,71.4,61.2,30.02,NW,315,0.0,1.0,70,0.00,,,0.00,meteohub,2013-05-09 04:14:00,
2013-05-09 00:19:00,71.1,61.2,30.01,SW,225,0.0,1.0,71,0.00,,,0.00,meteohub,2013-05-09 04:19:00,
2013-05-09 00:24:00,70.9,61.0,30.01,SW,225,0.0,1.0,71,0.00,,,0.00,meteohub,2013-05-09 04:24:00,
2013-05-09 00:29:00,70.9,61.0,30.02,SW,225,0.0,1.0,71,0.00,,,0.00,meteohub,2013-05-09 04:29:00,
2013-05-09 00:34:00,70.7,60.8,30.01,SW,225,0.0,1.0,71,0.00,,,0.00,meteohub,2013-05-09 04:34:00,
2013-05-09 00:40:00,70.7,61.2,30.01,SW,225,0.0,1.0,72,0.00,,,0.00,meteohub,2013-05-09 04:40:00,
2013-05-09 00:45:00,70.3,61.3,30.01,SW,225,1.0,1.0,73,0.00,,,0.00,meteohub,2013-05-09 04:45:00,
2013-05-09 00:50:00,70.3,61.3,30.01,SW,225,0.0,1.0,73,0.00,,,0.00,meteohub,2013-05-09 04:50:00,
2013-05-09 00:55:00,70.3,61.3,30.01,West,270,1.0,1.0,73,0.00,,,0.00,meteohub,2013-05-09 04:55:00,
2013-05-09 01:00:00,70.2,60.6,30.01,West,270,0.0,1.0,72,0.00,,,0.00,meteohub,2013-05-09 05:00:00,
2013-05-09 01:05:00,70.2,60.6,30.00,West,270,0.0,1.0,72,0.00,,,0.00,meteohub,2013-05-09 05:05:00,
2013-05-09 01:10:00,69.8,60.8,30.00,West,270,0.0,1.0,73,0.00,,,0.00,meteohub,2013-05-09 05:10:00,
2013-05-09 01:15:00,69.4,60.8,30.00,West,270,0.0,0.0,74,0.00,,,0.00,meteohub,2013-05-09 05:15:00,
2013-05-09 01:20:00,69.1,60.8,30.00,West,270,0.0,0.0,75,0.00,,,0.00,meteohub,2013-05-09 05:20:00,
2013-05-09 01:25:00,68.9,61.0,29.99,West,270,0.0,0.0,76,0.00,,,0.00,meteohub,2013-05-09 05:25:00,
2013-05-09 01:31:00,68.5,60.6,29.99,West,270,0.0,0.0,76,0.00,,,0.00,meteohub,2013-05-09 05:31:00,
2013-05-09 01:36:00,68.4,60.8,29.99,West,270,0.0,0.0,77,0.00,,,0.00,meteohub,2013-05-09 05:36:00,
2013-05-09 01:41:00,68.5,61.3,29.99,NW,315,2.0,2.0,78,0.00,,,0.00,meteohub,2013-05-09 05:41:00,
2013-05-09 01:46:00,68.7,61.2,29.99,West,270,2.0,2.0,77,0.00,,,0.00,meteohub,2013-05-09 05:46:00,
2013-05-09 01:51:00,68.9,61.0,29.98,West,270,1.0,2.0,76,0.00,,,0.00,meteohub,2013-05-09 05:51:00,
2013-05-09 01:56:00,69.1,60.8,29.99,West,270,0.0,2.0,75,0.00,,,0.00,meteohub,2013-05-09 05:56:00,
2013-05-09 02:01:00,69.1,60.8,29.98,West,270,0.0,3.0,75,0.00,,,0.00,meteohub,2013-05-09 06:01:00,
2013-05-09 02:06:00,68.9,60.6,29.99,North,0,0.0,3.0,75,0.00,,,0.00,meteohub,2013-05-09 06:06:00,
2013-05-09 02:11:00,68.9,61.0,29.98,NW,315,1.0,2.0,76,0.00,,,0.00,meteohub,2013-05-09 06:11:00,
2013-05-09 02:17:00,68.7,60.8,29.98,North,0,1.0,2.0,76,0.00,,,0.00,meteohub,2013-05-09 06:17:00,
2013-05-09 02:22:00,68.7,60.8,29.98,West,270,0.0,2.0,76,0.00,,,0.00,meteohub,2013-05-09 06:22:00,
2013-05-09 02:27:00,68.5,60.6,29.98,West,270,1.0,1.0,76,0.00,,,0.00,meteohub,2013-05-09 06:27:00,
2013-05-09 02:32:00,68.5,61.0,29.98,West,270,1.0,1.0,77,0.00,,,0.00,meteohub,2013-05-09 06:32:00,
2013-05-09 02:37:00,68.5,61.0,29.98,NW,315,0.0,2.0,77,0.00,,,0.00,meteohub,2013-05-09 06:37:00,
2013-05-09 02:42:00,68.5,61.0,29.97,West,270,0.0,2.0,77,0.00,,,0.00,meteohub,2013-05-09 06:42:00,
2013-05-09 02:47:00,68.2,60.6,29.97,West,270,0.0,1.0,77,0.00,,,0.00,meteohub,2013-05-09 06:47:00,
2013-05-09 02:52:00,67.8,60.6,29.97,West,270,1.0,1.0,78,0.00,,,0.00,meteohub,2013-05-09 06:52:00,
2013-05-09 02:57:00,67.6,61.2,29.97,West,270,1.0,1.0,80,0.00,,,0.00,meteohub,2013-05-09 06:57:00,
2013-05-09 03:02:00,67.5,61.2,29.97,West,270,0.0,1.0,80,0.00,,,0.00,meteohub,2013-05-09 07:02:00,
2013-05-09 03:07:00,67.1,61.2,29.98,West,270,0.0,1.0,81,0.00,,,0.00,meteohub,2013-05-09 07:07:00,
2013-05-09 03:12:00,66.9,61.0,29.97,West,270,0.0,1.0,81,0.00,,,0.00,meteohub,2013-05-09 07:12:00,
2013-05-09 03:17:00,66.9,61.2,29.97,West,270,1.0,0.0,82,0.00,,,0.00,meteohub,2013-05-09 07:17:00,
2013-05-09 03:22:00,67.1,62.1,29.97,NW,315,1.0,1.0,84,0.00,,,0.00,meteohub,2013-05-09 07:22:00,
2013-05-09 03:27:00,67.1,62.1,29.97,NW,315,1.0,1.0,84,0.00,,,0.00,meteohub,2013-05-09 07:27:00,
2013-05-09 03:32:00,67.1,62.1,29.97,West,270,1.0,2.0,84,0.00,,,0.00,meteohub,2013-05-09 07:32:00,
2013-05-09 03:37:00,67.1,62.4,29.97,NW,315,1.0,2.0,85,0.00,,,0.00,meteohub,2013-05-09 07:37:00,
2013-05-09 03:42:00,67.1,62.4,29.97,West,270,0.0,2.0,85,0.00,,,0.00,meteohub,2013-05-09 07:42:00,
2013-05-09 03:47:00,67.1,62.8,29.96,West,270,1.0,2.0,86,0.00,,,0.00,meteohub,2013-05-09 07:47:00,
2013-05-09 03:52:00,67.1,63.1,29.96,NW,315,2.0,2.0,87,0.00,,,0.00,meteohub,2013-05-09 07:52:00,
2013-05-09 03:57:00,67.3,63.7,29.96,NW,315,2.0,2.0,88,0.00,,,0.00,meteohub,2013-05-09 07:57:00,
2013-05-09 04:02:00,67.3,63.7,29.96,North,0,1.0,2.0,88,0.00,,,0.00,meteohub,2013-05-09 08:02:00,
2013-05-09 04:07:00,67.3,63.9,29.96,NW,315,0.0,2.0,89,0.00,,,0.00,meteohub,2013-05-09 08:07:00,
2013-05-09 04:12:00,67.1,64.0,29.96,NW,315,1.0,2.0,90,0.00,,,0.00,meteohub,2013-05-09 08:12:00,
2013-05-09 04:17:00,67.1,64.4,29.96,NW,315,1.0,1.0,91,0.00,,,0.00,meteohub,2013-05-09 08:17:00,
2013-05-09 04:22:00,67.1,64.4,29.96,NW,315,1.0,1.0,91,0.00,,,0.00,meteohub,2013-05-09 08:22:00,
2013-05-09 04:27:00,67.3,64.6,29.96,NW,315,1.0,2.0,91,0.00,,,0.00,meteohub,2013-05-09 08:27:00,
2013-05-09 04:32:00,67.3,64.6,29.96,NW,315,0.0,2.0,91,0.00,,,0.00,meteohub,2013-05-09 08:32:00,
2013-05-09 04:37:00,66.7,64.4,29.96,NW,315,1.0,2.0,92,0.00,,,0.00,meteohub,2013-05-09 08:37:00,
2013-05-09 04:42:00,66.7,64.6,29.96,NW,315,0.0,2.0,93,0.00,,,0.00,meteohub,2013-05-09 08:42:00,
2013-05-09 04:47:00,66.6,64.8,29.96,NW,315,0.0,2.0,94,0.00,,,0.00,meteohub,2013-05-09 08:47:00,
2013-05-09 04:52:00,66.6,64.8,29.96,NW,315,1.0,2.0,94,0.00,,,0.00,meteohub,2013-05-09 08:52:00,
2013-05-09 04:57:00,66.4,64.6,29.96,NW,315,0.0,1.0,94,0.00,,,0.00,meteohub,2013-05-09 08:57:00,
2013-05-09 05:02:00,66.4,64.9,29.96,North,0,0.0,1.0,95,0.00,,,0.00,meteohub,2013-05-09 09:02:00,
2013-05-09 05:07:00,66.2,64.8,29.96,North,0,0.0,1.0,95,0.00,,,0.00,meteohub,2013-05-09 09:07:00,
2013-05-09 05:12:00,66.2,64.8,29.96,North,0,0.0,1.0,95,0.00,,,0.00,meteohub,2013-05-09 09:12:00,
2013-05-09 05:17:00,66.2,64.8,29.96,North,0,0.0,0.0,95,0.00,,,0.00,meteohub,2013-05-09 09:17:00,
2013-05-09 05:22:00,66.0,64.6,29.96,North,0,0.0,0.0,95,0.00,,,0.00,meteohub,2013-05-09 09:22:00,
2013-05-09 05:27:00,65.8,64.6,29.96,North,0,0.0,0.0,96,0.00,,,0.00,meteohub,2013-05-09 09:27:00,
2013-05-09 05:32:00,65.8,64.6,29.96,West,270,0.0,0.0,96,0.00,,,0.00,meteohub,2013-05-09 09:32:00,
2013-05-09 05:37:00,65.8,64.6,29.96,West,270,0.0,0.0,96,0.00,,,0.00,meteohub,2013-05-09 09:37:00,
2013-05-09 05:42:00,65.8,64.9,29.97,West,270,0.0,0.0,97,0.00,,,0.00,meteohub,2013-05-09 09:42:00,
2013-05-09 05:47:00,65.7,64.8,29.97,West,270,0.0,0.0,97,0.00,,,0.00,meteohub,2013-05-09 09:47:00,
2013-05-09 05:52:00,65.5,64.9,29.97,West,270,0.0,1.0,98,0.00,,,0.00,meteohub,2013-05-09 09:52:00,
2013-05-09 05:57:00,65.5,65.1,29.97,West,270,0.0,1.0,99,0.00,,,0.00,meteohub,2013-05-09 09:57:00,
2013-05-09 06:02:00,65.5,65.1,29.96,West,270,0.0,1.0,99,0.00,,,0.00,meteohub,2013-05-09 10:02:00,
2013-05-09 06:07:00,65.5,65.1,29.97,West,270,0.0,0.0,99,0.00,,,0.00,meteohub,2013-05-09 10:07:00,
2013-05-09 06:12:00,65.3,64.9,29.97,West,270,0.0,0.0,99,0.00,,,0.00,meteohub,2013-05-09 10:12:00,
2013-05-09 06:17:00,65.5,65.1,29.97,NW,315,0.0,0.0,99,0.00,,,0.00,meteohub,2013-05-09 10:17:00,
2013-05-09 06:22:00,65.5,65.1,29.97,NW,315,0.0,0.0,99,0.00,,,0.00,meteohub,2013-05-09 10:22:00,
2013-05-09 06:27:00,65.5,65.1,29.97,NW,315,0.0,0.0,99,0.00,,,0.00,meteohub,2013-05-09 10:27:00,
2013-05-09 06:32:00,65.5,65.1,29.97,NW,315,1.0,0.0,99,0.00,,,0.00,meteohub,2013-05-09 10:32:00,
2013-05-09 06:37:00,65.7,65.3,29.97,West,270,2.0,2.0,99,0.00,,,0.00,meteohub,2013-05-09 10:37:00,
2013-05-09 06:42:00,66.0,65.7,29.98,SW,225,2.0,2.0,99,0.00,,,0.00,meteohub,2013-05-09 10:42:00,
2013-05-09 06:47:00,66.2,65.8,29.98,North,0,1.0,3.0,99,0.00,,,0.00,meteohub,2013-05-09 10:47:00,
2013-05-09 06:52:00,66.4,65.5,29.99,North,0,1.0,3.0,97,0.00,,,0.00,meteohub,2013-05-09 10:52:00,
2013-05-09 06:57:00,66.6,65.3,29.99,West,270,0.0,3.0,96,0.00,,,0.00,meteohub,2013-05-09 10:57:00,
2013-05-09 07:02:00,66.7,65.3,29.99,West,270,2.0,2.0,95,0.00,,,0.00,meteohub,2013-05-09 11:02:00,
2013-05-09 07:07:00,67.1,65.7,29.99,West,270,3.0,3.0,95,0.00,,,0.00,meteohub,2013-05-09 11:07:00,
2013-05-09 07:12:00,67.6,65.5,29.99,West,270,1.0,3.0,93,0.00,,,0.00,meteohub,2013-05-09 11:12:00,
2013-05-09 07:17:00,68.5,66.4,29.99,NW,315,1.0,3.0,93,0.00,,,0.00,meteohub,2013-05-09 11:17:00,
2013-05-09 07:22:00,69.6,66.6,29.99,North,0,2.0,3.0,90,0.00,,,0.00,meteohub,2013-05-09 11:22:00,
2013-05-09 07:27:00,70.3,66.2,29.99,West,270,1.0,3.0,87,0.00,,,0.00,meteohub,2013-05-09 11:27:00,
2013-05-09 07:32:00,71.2,67.1,29.99,West,270,1.0,4.0,87,0.00,,,0.00,meteohub,2013-05-09 11:32:00,
2013-05-09 07:37:00,72.0,66.6,29.99,North,0,3.0,4.0,83,0.00,,,0.00,meteohub,2013-05-09 11:37:00,
2013-05-09 07:42:00,72.5,66.4,29.99,NW,315,2.0,4.0,81,0.00,,,0.00,meteohub,2013-05-09 11:42:00,
2013-05-09 07:47:00,73.0,66.6,30.00,SW,225,1.0,4.0,80,0.00,,,0.00,meteohub,2013-05-09 11:47:00,
2013-05-09 07:52:00,74.3,67.6,29.99,NW,315,1.0,4.0,80,0.00,,,0.00,meteohub,2013-05-09 11:52:00,
2013-05-09 07:57:00,75.4,66.9,29.99,NW,315,1.0,4.0,75,0.00,,,0.00,meteohub,2013-05-09 11:57:00,
2013-05-09 08:02:00,76.6,67.3,30.00,NW,315,2.0,3.0,73,0.00,,,0.00,meteohub,2013-05-09 12:02:00,
2013-05-09 08:07:00,77.4,66.7,30.00,NW,315,2.0,2.0,70,0.00,,,0.00,meteohub,2013-05-09 12:07:00,
2013-05-09 08:12:00,77.9,66.9,30.00,North,0,1.0,2.0,69,0.00,,,0.00,meteohub,2013-05-09 12:12:00,
2013-05-09 08:17:00,78.3,67.3,30.00,NW,315,1.0,2.0,69,0.00,,,0.00,meteohub,2013-05-09 12:17:00,
2013-05-09 08:22:00,79.0,66.6,29.99,NW,315,3.0,3.0,66,0.00,,,0.00,meteohub,2013-05-09 12:22:00,
2013-05-09 08:27:00,78.8,66.9,29.99,West,270,1.0,3.0,67,0.00,,,0.00,meteohub,2013-05-09 12:27:00,
2013-05-09 08:32:00,78.6,66.4,29.99,North,0,3.0,3.0,66,0.00,,,0.00,meteohub,2013-05-09 12:32:00,
2013-05-09 08:37:00,79.7,67.8,30.00,SW,225,1.0,3.0,67,0.00,,,0.00,meteohub,2013-05-09 12:37:00,
2013-05-09 08:42:00,80.8,68.0,30.00,North,0,2.0,3.0,65,0.00,,,0.00,meteohub,2013-05-09 12:42:00,
2013-05-09 08:47:00,81.7,67.8,29.99,NW,315,0.0,3.0,63,0.00,,,0.00,meteohub,2013-05-09 12:47:00,
2013-05-09 08:52:00,82.8,68.4,30.00,East,90,1.0,2.0,62,0.00,,,0.00,meteohub,2013-05-09 12:52:00,
2013-05-09 08:58:00,83.8,67.5,30.01,North,0,2.0,2.0,58,0.00,,,0.00,meteohub,2013-05-09 12:58:00,
2013-05-09 09:03:00,83.7,66.7,30.00,NW,315,2.0,2.0,57,0.00,,,0.00,meteohub,2013-05-09 13:03:00,
2013-05-09 09:08:00,83.7,67.3,30.01,SE,135,2.0,2.0,58,0.00,,,0.00,meteohub,2013-05-09 13:08:00,
2013-05-09 09:13:00,83.8,68.5,30.00,SW,225,1.0,2.0,60,0.00,,,0.00,meteohub,2013-05-09 13:13:00,
2013-05-09 09:18:00,84.4,67.5,30.01,NW,315,2.0,2.0,57,0.00,,,0.00,meteohub,2013-05-09 13:18:00,
2013-05-09 09:23:00,84.9,68.0,30.01,East,90,1.0,3.0,57,0.00,,,0.00,meteohub,2013-05-09 13:23:00,
2013-05-09 09:28:00,85.8,68.4,30.01,NW,315,2.0,3.0,56,0.00,,,0.00,meteohub,2013-05-09 13:28:00,
2013-05-09 09:33:00,85.6,68.2,30.01,SE,135,2.0,3.0,56,0.00,,,0.00,meteohub,2013-05-09 13:33:00,
2013-05-09 09:38:00,85.8,67.8,30.01,East,90,2.0,3.0,55,0.00,,,0.00,meteohub,2013-05-09 13:38:00,
2013-05-09 09:43:00,86.0,68.5,30.01,East,90,2.0,3.0,56,0.00,,,0.00,meteohub,2013-05-09 13:43:00,
2013-05-09 09:48:00,86.2,67.1,30.01,West,270,1.0,2.0,53,0.00,,,0.00,meteohub,2013-05-09 13:48:00,
2013-05-09 09:54:00,86.5,66.7,30.02,SW,225,2.0,2.0,52,0.00,,,0.00,meteohub,2013-05-09 13:54:00,
2013-05-09 09:59:00,86.5,66.7,30.02,West,270,1.0,3.0,52,0.00,,,0.00,meteohub,2013-05-09 13:59:00,
2013-05-09 10:04:00,87.4,62.8,30.01,East,90,4.0,4.0,44,0.00,,,0.00,meteohub,2013-05-09 14:04:00,
2013-05-09 10:09:00,86.5,63.9,30.02,SE,135,2.0,3.0,47,0.00,,,0.00,meteohub,2013-05-09 14:09:00,
2013-05-09 10:14:00,86.4,64.9,30.02,East,90,2.0,4.0,49,0.00,,,0.00,meteohub,2013-05-09 14:14:00,
2013-05-09 10:19:00,86.4,64.9,30.02,SE,135,2.0,4.0,49,0.00,,,0.00,meteohub,2013-05-09 14:19:00,
2013-05-09 10:24:00,87.1,66.2,30.02,SW,225,2.0,3.0,50,0.00,,,0.00,meteohub,2013-05-09 14:24:00,
2013-05-09 10:29:00,87.3,66.9,30.01,SE,135,1.0,3.0,51,0.00,,,0.00,meteohub,2013-05-09 14:29:00,
2013-05-09 10:34:00,87.6,65.5,30.01,NW,315,2.0,3.0,48,0.00,,,0.00,meteohub,2013-05-09 14:34:00,
2013-05-09 10:39:00,88.5,67.5,30.02,South,180,2.0,3.0,50,0.00,,,0.00,meteohub,2013-05-09 14:39:00,
2013-05-09 10:44:00,89.1,66.7,30.02,SW,225,1.0,3.0,48,0.00,,,0.00,meteohub,2013-05-09 14:44:00,
2013-05-09 10:50:00,88.7,66.6,30.01,East,90,4.0,4.0,48,0.00,,,0.00,meteohub,2013-05-09 14:50:00,
2013-05-09 10:55:00,88.2,67.8,30.02,South,180,2.0,4.0,51,0.00,,,0.00,meteohub,2013-05-09 14:55:00,
2013-05-09 11:00:00,88.2,66.6,30.02,North,0,1.0,4.0,49,0.00,,,0.00,meteohub,2013-05-09 15:00:00,
2013-05-09 11:05:00,88.9,67.3,30.01,South,180,2.0,4.0,49,0.00,,,0.00,meteohub,2013-05-09 15:05:00,
2013-05-09 11:10:00,88.2,67.8,30.01,East,90,4.0,4.0,51,0.00,,,0.00,meteohub,2013-05-09 15:10:00,
2013-05-09 11:15:00,87.6,68.4,30.02,East,90,2.0,6.0,53,0.00,,,0.00,meteohub,2013-05-09 15:15:00,
2013-05-09 11:20:00,88.2,67.8,30.01,SW,225,2.0,6.0,51,0.00,,,0.00,meteohub,2013-05-09 15:20:00,
2013-05-09 11:25:00,87.8,66.9,30.02,East,90,4.0,5.0,50,0.00,,,0.00,meteohub,2013-05-09 15:25:00,
2013-05-09 11:30:00,87.4,68.2,30.02,SW,225,4.0,5.0,53,0.00,,,0.00,meteohub,2013-05-09 15:30:00,
2013-05-09 11:36:00,88.0,69.3,30.01,South,180,2.0,5.0,54,0.00,,,0.00,meteohub,2013-05-09 15:36:00,
2013-05-09 11:41:00,88.9,70.2,30.02,SW,225,3.0,5.0,54,0.00,,,0.00,meteohub,2013-05-09 15:41:00,
2013-05-09 11:46:00,89.1,69.1,30.01,SW,225,3.0,5.0,52,0.00,,,0.00,meteohub,2013-05-09 15:46:00,
2013-05-09 11:51:00,89.2,68.7,30.01,East,90,4.0,4.0,51,0.00,,,0.00,meteohub,2013-05-09 15:51:00,
2013-05-09 11:56:00,88.5,68.7,30.02,East,90,4.0,4.0,52,0.00,,,0.00,meteohub,2013-05-09 15:56:00,
2013-05-09 12:01:00,88.3,69.6,30.02,East,90,9.0,9.0,54,0.00,,,0.00,meteohub,2013-05-09 16:01:00,
2013-05-09 12:06:00,86.9,70.3,30.03,SW,225,3.0,13.0,58,0.00,,,0.00,meteohub,2013-05-09 16:06:00,
2013-05-09 12:12:00,87.1,68.9,30.02,East,90,4.0,13.0,55,0.00,,,0.00,meteohub,2013-05-09 16:12:00,
2013-05-09 12:17:00,86.9,68.7,30.03,East,90,9.0,13.0,55,0.00,,,0.00,meteohub,2013-05-09 16:17:00,
2013-05-09 12:22:00,85.8,69.8,30.02,East,90,9.0,10.0,59,0.00,,,0.00,meteohub,2013-05-09 16:22:00,
2013-05-09 12:27:00,85.8,70.3,30.03,East,90,4.0,10.0,60,0.00,,,0.00,meteohub,2013-05-09 16:27:00,
2013-05-09 12:32:00,86.4,70.9,30.01,South,180,2.0,10.0,60,0.00,,,0.00,meteohub,2013-05-09 16:32:00,
2013-05-09 12:37:00,86.9,70.3,30.02,NE,45,7.0,11.0,58,0.00,,,0.00,meteohub,2013-05-09 16:37:00,
2013-05-09 12:42:00,86.2,70.2,30.02,East,90,8.0,11.0,59,0.00,,,0.00,meteohub,2013-05-09 16:42:00,
2013-05-09 12:47:00,86.0,71.4,30.01,South,180,9.0,11.0,62,0.00,,,0.00,meteohub,2013-05-09 16:47:00,
2013-05-09 12:52:00,86.5,71.4,30.02,East,90,7.0,11.0,61,0.00,,,0.00,meteohub,2013-05-09 16:52:00,
2013-05-09 12:57:00,86.0,70.5,30.02,East,90,13.0,13.0,60,0.00,,,0.00,meteohub,2013-05-09 16:57:00,
2013-05-09 13:02:00,85.6,71.1,30.02,SE,135,8.0,13.0,62,0.00,,,0.00,meteohub,2013-05-09 17:02:00,
2013-05-09 13:07:00,86.0,71.1,30.01,NE,45,10.0,13.0,61,0.00,,,0.00,meteohub,2013-05-09 17:07:00,
2013-05-09 13:12:00,86.0,71.1,30.01,East,90,8.0,13.0,61,0.00,,,0.00,meteohub,2013-05-09 17:12:00,
2013-05-09 13:17:00,86.4,71.8,30.01,South,180,4.0,11.0,62,0.00,,,0.00,meteohub,2013-05-09 17:17:00,
2013-05-09 13:22:00,87.3,71.2,30.01,NE,45,6.0,11.0,59,0.00,,,0.00,meteohub,2013-05-09 17:22:00,
2013-05-09 13:27:00,86.5,71.4,30.01,East,90,6.0,11.0,61,0.00,,,0.00,meteohub,2013-05-09 17:27:00,
2013-05-09 13:32:00,85.3,71.8,30.00,East,90,15.0,15.0,64,0.00,,,0.00,meteohub,2013-05-09 17:32:00,
2013-05-09 13:37:00,85.6,71.6,30.01,East,90,9.0,15.0,63,0.00,,,0.00,meteohub,2013-05-09 17:37:00,
2013-05-09 13:42:00,85.5,71.4,30.01,East,90,12.0,15.0,63,0.00,,,0.00,meteohub,2013-05-09 17:42:00,
2013-05-09 13:47:00,85.8,70.9,30.01,NE,45,9.0,15.0,61,0.00,,,0.00,meteohub,2013-05-09 17:47:00,
2013-05-09 13:52:00,85.5,72.0,30.01,East,90,9.0,12.0,64,0.00,,,0.00,meteohub,2013-05-09 17:52:00,
2013-05-09 13:57:00,85.6,70.7,30.01,SE,135,9.0,12.0,61,0.00,,,0.00,meteohub,2013-05-09 17:57:00,
2013-05-09 14:02:00,85.8,72.1,30.01,East,90,5.0,11.0,64,0.00,,,0.00,meteohub,2013-05-09 18:02:00,
2013-05-09 14:07:00,86.0,72.3,30.01,East,90,8.0,11.0,64,0.00,,,0.00,meteohub,2013-05-09 18:07:00,
2013-05-09 14:12:00,86.4,71.2,30.01,East,90,11.0,11.0,61,0.00,,,0.00,meteohub,2013-05-09 18:12:00,
2013-05-09 14:17:00,86.5,71.1,30.01,East,90,8.0,11.0,60,0.00,,,0.00,meteohub,2013-05-09 18:17:00,
2013-05-09 14:22:00,87.1,72.5,30.00,SE,135,8.0,11.0,62,0.00,,,0.00,meteohub,2013-05-09 18:22:00,
2013-05-09 14:27:00,86.2,72.1,30.00,South,180,8.0,13.0,63,0.00,,,0.00,meteohub,2013-05-09 18:27:00,
2013-05-09 14:32:00,86.7,72.1,29.99,SE,135,9.0,13.0,62,0.00,,,0.00,meteohub,2013-05-09 18:32:00,
2013-05-09 14:37:00,86.0,71.4,29.99,East,90,11.0,13.0,62,0.00,,,0.00,meteohub,2013-05-09 18:37:00,
2013-05-09 14:42:00,85.1,72.0,29.99,East,90,6.0,12.0,65,0.00,,,0.00,meteohub,2013-05-09 18:42:00,
2013-05-09 14:47:00,86.0,72.9,29.99,NE,45,7.0,14.0,65,0.00,,,0.00,meteohub,2013-05-09 18:47:00,
2013-05-09 14:52:00,85.6,72.5,29.99,East,90,8.0,14.0,65,0.00,,,0.00,meteohub,2013-05-09 18:52:00,
2013-05-09 14:57:00,85.1,73.4,29.99,SE,135,8.0,14.0,68,0.00,,,0.00,meteohub,2013-05-09 18:57:00,
2013-05-09 15:02:00,84.6,72.9,29.99,East,90,6.0,11.0,68,0.00,,,0.00,meteohub,2013-05-09 19:02:00,
2013-05-09 15:07:00,85.3,73.0,29.99,East,90,8.0,11.0,67,0.00,,,0.00,meteohub,2013-05-09 19:07:00,
2013-05-09 15:12:00,85.8,72.1,29.97,East,90,8.0,11.0,64,0.00,,,0.00,meteohub,2013-05-09 19:12:00,
2013-05-09 15:17:00,85.5,72.9,29.97,East,90,8.0,13.0,66,0.00,,,0.00,meteohub,2013-05-09 19:17:00,
2013-05-09 15:22:00,86.2,73.4,29.97,East,90,11.0,13.0,66,0.00,,,0.00,meteohub,2013-05-09 19:22:00,
2013-05-09 15:27:00,86.0,72.9,29.97,ESE,113,11.0,13.0,65,0.00,,,0.00,meteohub,2013-05-09 19:27:00,
2013-05-09 15:32:00,84.0,72.3,29.97,NE,45,5.0,13.0,68,0.00,,,0.00,meteohub,2013-05-09 19:32:00,
2013-05-09 15:37:00,83.5,70.9,29.97,East,90,4.0,11.0,66,0.00,,,0.00,meteohub,2013-05-09 19:37:00,
2013-05-09 15:42:00,83.3,72.1,29.96,East,90,5.0,11.0,69,0.00,,,0.00,meteohub,2013-05-09 19:42:00,
2013-05-09 15:47:00,83.7,71.6,29.96,East,90,7.0,8.0,67,0.00,,,0.00,meteohub,2013-05-09 19:47:00,
2013-05-09 15:52:00,85.8,73.2,29.96,East,90,5.0,8.0,66,0.00,,,0.00,meteohub,2013-05-09 19:52:00,
2013-05-09 15:57:00,86.9,74.1,29.96,SE,135,3.0,8.0,66,0.00,,,0.00,meteohub,2013-05-09 19:57:00,
2013-05-09 16:02:00,86.9,73.2,29.96,South,180,3.0,8.0,64,0.00,,,0.00,meteohub,2013-05-09 20:02:00,
2013-05-09 16:07:00,85.8,73.2,29.96,East,90,9.0,10.0,66,0.00,,,0.00,meteohub,2013-05-09 20:07:00,
2013-05-09 16:12:00,84.4,72.1,29.95,SE,135,1.0,13.0,67,0.00,,,0.00,meteohub,2013-05-09 20:12:00,
2013-05-09 16:17:00,86.0,72.9,29.95,North,0,5.0,13.0,65,0.00,,,0.00,meteohub,2013-05-09 20:17:00,
2013-05-09 16:22:00,88.2,72.5,29.95,South,180,3.0,11.0,60,0.00,,,0.00,meteohub,2013-05-09 20:22:00,
2013-05-09 16:27:00,88.3,72.1,29.95,East,90,10.0,10.0,59,0.00,,,0.00,meteohub,2013-05-09 20:27:00,
2013-05-09 16:32:00,87.4,72.9,29.95,South,180,3.0,10.0,62,0.00,,,0.00,meteohub,2013-05-09 20:32:00,
2013-05-09 16:37:00,86.5,72.0,29.95,South,180,4.0,10.0,62,0.00,,,0.00,meteohub,2013-05-09 20:37:00,
2013-05-09 16:42:00,86.4,73.6,29.94,East,90,11.0,11.0,66,0.00,,,0.00,meteohub,2013-05-09 20:42:00,
2013-05-09 16:47:00,85.6,73.9,29.95,East,90,10.0,12.0,68,0.00,,,0.00,meteohub,2013-05-09 20:47:00,
2013-05-09 16:52:00,84.2,74.1,29.95,ESE,113,10.0,14.0,72,0.00,,,0.00,meteohub,2013-05-09 20:52:00,
2013-05-09 16:57:00,83.3,73.8,29.95,East,90,11.0,14.0,73,0.00,,,0.00,meteohub,2013-05-09 20:57:00,
2013-05-09 17:02:00,82.4,74.1,29.95,East,90,10.0,14.0,76,0.00,,,0.00,meteohub,2013-05-09 21:02:00,
2013-05-09 17:07:00,81.9,73.9,29.95,East,90,11.0,18.0,77,0.00,,,0.00,meteohub,2013-05-09 21:07:00,
2013-05-09 17:12:00,81.3,73.8,29.95,East,90,11.0,18.0,78,0.00,,,0.00,meteohub,2013-05-09 21:12:00,
2013-05-09 17:17:00,81.1,75.6,29.96,SE,135,4.0,14.0,83,0.00,,,0.00,meteohub,2013-05-09 21:17:00,
2013-05-09 17:22:00,80.4,76.1,29.96,East,90,10.0,14.0,87,0.01,,,0.01,meteohub,2013-05-09 21:22:00,
2013-05-09 17:27:00,79.7,76.8,29.95,East,90,9.0,13.0,91,0.02,,,0.02,meteohub,2013-05-09 21:27:00,
2013-05-09 17:32:00,81.0,77.0,29.96,NE,45,7.0,11.0,88,0.02,,,0.02,meteohub,2013-05-09 21:32:00,
2013-05-09 17:37:00,81.3,77.4,29.96,East,90,6.0,11.0,88,0.02,,,0.02,meteohub,2013-05-09 21:37:00,
2013-05-09 17:42:00,81.9,77.2,29.96,East,90,8.0,11.0,86,0.02,,,0.02,meteohub,2013-05-09 21:42:00,
2013-05-09 17:47:00,82.8,77.7,29.95,South,180,6.0,11.0,85,0.02,,,0.02,meteohub,2013-05-09 21:47:00,
2013-05-09 17:52:00,84.0,77.5,29.96,East,90,6.0,11.0,81,0.02,,,0.02,meteohub,2013-05-09 21:52:00,
2013-05-09 17:57:00,83.7,76.5,29.95,SE,135,11.0,11.0,79,0.02,,,0.02,meteohub,2013-05-09 21:57:00,
2013-05-09 18:02:00,83.7,76.8,29.94,SE,135,5.0,11.0,80,0.02,,,0.02,meteohub,2013-05-09 22:02:00,
2013-05-09 18:07:00,84.0,76.8,29.95,East,90,7.0,11.0,79,0.02,,,0.02,meteohub,2013-05-09 22:07:00,
2013-05-09 18:12:00,83.8,76.3,29.95,East,90,7.0,11.0,78,0.02,,,0.02,meteohub,2013-05-09 22:12:00,
2013-05-09 18:17:00,83.7,76.1,29.95,East,90,8.0,11.0,78,0.02,,,0.02,meteohub,2013-05-09 22:17:00,
2013-05-09 18:22:00,83.5,75.6,29.95,East,90,10.0,11.0,77,0.01,,,0.02,meteohub,2013-05-09 22:22:00,
2013-05-09 18:27:00,83.5,75.6,29.95,East,90,8.0,11.0,77,0.00,,,0.02,meteohub,2013-05-09 22:27:00,
2013-05-09 18:32:00,83.3,75.4,29.95,East,90,8.0,12.0,77,0.00,,,0.02,meteohub,2013-05-09 22:32:00,
2013-05-09 18:37:00,83.1,75.6,29.95,SE,135,8.0,12.0,78,0.00,,,0.02,meteohub,2013-05-09 22:37:00,
2013-05-09 18:42:00,82.4,74.8,29.96,East,90,8.0,12.0,78,0.00,,,0.02,meteohub,2013-05-09 22:42:00,
2013-05-09 18:47:00,81.9,75.0,29.96,East,90,4.0,11.0,80,0.00,,,0.02,meteohub,2013-05-09 22:47:00,
2013-05-09 18:52:00,81.9,75.0,29.95,SE,135,3.0,10.0,80,0.00,,,0.02,meteohub,2013-05-09 22:52:00,
2013-05-09 18:57:00,81.7,74.8,29.95,East,90,4.0,8.0,80,0.00,,,0.02,meteohub,2013-05-09 22:57:00,
2013-05-09 19:02:00,81.5,75.0,29.95,SE,135,4.0,8.0,81,0.00,,,0.02,meteohub,2013-05-09 23:02:00,
2013-05-09 19:07:00,81.3,74.5,29.96,East,90,8.0,8.0,80,0.00,,,0.02,meteohub,2013-05-09 23:07:00,
2013-05-09 19:12:00,81.1,74.7,29.96,SE,135,5.0,8.0,81,0.00,,,0.02,meteohub,2013-05-09 23:12:00,
2013-05-09 19:17:00,81.0,74.7,29.96,East,90,8.0,9.0,81,0.00,,,0.02,meteohub,2013-05-09 23:17:00,
2013-05-09 19:22:00,80.6,74.7,29.95,East,90,8.0,9.0,82,0.00,,,0.02,meteohub,2013-05-09 23:22:00,
2013-05-09 19:27:00,80.6,75.0,29.95,East,90,7.0,9.0,83,0.00,,,0.02,meteohub,2013-05-09 23:27:00,
2013-05-09 19:32:00,80.4,74.8,29.95,East,90,7.0,11.0,83,0.00,,,0.02,meteohub,2013-05-09 23:32:00,
2013-05-09 19:37:00,80.2,75.4,29.96,West,270,6.0,11.0,85,0.00,,,0.02,meteohub,2013-05-09 23:37:00,
2013-05-09 19:42:00,80.2,75.4,29.96,East,90,2.0,11.0,85,0.00,,,0.02,meteohub,2013-05-09 23:42:00,
2013-05-09 19:47:00,79.9,75.4,29.95,East,90,4.0,11.0,86,0.00,,,0.02,meteohub,2013-05-09 23:47:00,
2013-05-09 19:52:00,79.9,75.7,29.97,East,90,4.0,8.0,87,0.00,,,0.02,meteohub,2013-05-09 23:52:00,
2013-05-09 19:57:00,79.9,75.9,29.97,SE,135,3.0,7.0,88,0.00,,,0.02,meteohub,2013-05-09 23:57:00,
2013-05-09 20:02:00,79.7,75.6,29.97,East,90,4.0,7.0,87,0.00,,,0.02,meteohub,2013-05-10 00:02:00,
2013-05-09 20:07:00,79.7,75.6,29.97,SE,135,4.0,6.0,87,0.00,,,0.00,meteohub,2013-05-10 00:07:00,
2013-05-09 20:12:00,79.5,75.4,29.97,ENE,68,2.0,7.0,87,0.00,,,0.00,meteohub,2013-05-10 00:12:00,
2013-05-09 20:17:00,79.3,75.2,29.97,South,180,2.0,7.0,87,0.00,,,0.00,meteohub,2013-05-10 00:17:00,
2013-05-09 20:22:00,79.3,75.6,29.97,East,90,4.0,7.0,88,0.00,,,0.00,meteohub,2013-05-10 00:22:00,
2013-05-09 20:27:00,79.3,75.6,29.96,East,90,3.0,5.0,88,0.00,,,0.00,meteohub,2013-05-10 00:27:00,
2013-05-09 20:32:00,79.2,75.6,29.96,East,90,2.0,5.0,89,0.00,,,0.00,meteohub,2013-05-10 00:32:00,
2013-05-09 20:37:00,79.2,75.6,29.97,East,90,5.0,5.0,89,0.00,,,0.00,meteohub,2013-05-10 00:37:00,
2013-05-09 20:42:00,79.2,75.6,29.97,East,90,3.0,8.0,89,0.00,,,0.00,meteohub,2013-05-10 00:42:00,
2013-05-09 20:47:00,79.3,75.6,29.98,SE,135,2.0,8.0,88,0.00,,,0.00,meteohub,2013-05-10 00:47:00,
2013-05-09 20:52:00,79.3,75.6,29.98,East,90,5.0,8.0,88,0.00,,,0.00,meteohub,2013-05-10 00:52:00,
2013-05-09 20:57:00,79.3,75.6,29.98,East,90,4.0,5.0,88,0.00,,,0.00,meteohub,2013-05-10 00:57:00,
2013-05-09 21:02:00,79.3,75.6,29.98,East,90,4.0,7.0,88,0.00,,,0.00,meteohub,2013-05-10 01:02:00,
2013-05-09 21:07:00,79.3,75.6,29.99,South,180,2.0,7.0,88,0.00,,,0.00,meteohub,2013-05-10 01:07:00,
2013-05-09 21:12:00,79.2,75.4,29.98,East,90,3.0,7.0,88,0.00,,,0.00,meteohub,2013-05-10 01:12:00,
2013-05-09 21:17:00,79.2,75.6,29.98,SE,135,2.0,6.0,89,0.00,,,0.00,meteohub,2013-05-10 01:17:00,
2013-05-09 21:22:00,79.2,75.6,29.99,SE,135,2.0,4.0,89,0.00,,,0.00,meteohub,2013-05-10 01:22:00,
2013-05-09 21:27:00,79.2,75.6,29.99,NE,45,3.0,4.0,89,0.00,,,0.00,meteohub,2013-05-10 01:27:00,
2013-05-09 21:32:00,79.2,75.9,29.99,East,90,3.0,4.0,90,0.00,,,0.00,meteohub,2013-05-10 01:32:00,
2013-05-09 21:37:00,79.2,75.9,29.99,NE,45,6.0,6.0,90,0.00,,,0.00,meteohub,2013-05-10 01:37:00,
2013-05-09 21:42:00,79.0,75.7,29.99,East,90,4.0,6.0,90,0.00,,,0.00,meteohub,2013-05-10 01:42:00,
2013-05-09 21:47:00,79.2,75.6,29.99,SE,135,5.0,8.0,89,0.00,,,0.00,meteohub,2013-05-10 01:47:00,
2013-05-09 21:52:00,79.2,75.6,29.99,SE,135,3.0,8.0,89,0.00,,,0.00,meteohub,2013-05-10 01:52:00,
2013-05-09 21:57:00,79.0,75.4,29.99,East,90,2.0,8.0,89,0.00,,,0.00,meteohub,2013-05-10 01:57:00,
2013-05-09 22:02:00,78.8,75.6,29.99,East,90,3.0,8.0,90,0.00,,,0.00,meteohub,2013-05-10 02:02:00,
2013-05-09 22:07:00,78.8,75.9,29.99,SE,135,2.0,4.0,91,0.00,,,0.00,meteohub,2013-05-10 02:07:00,
2013-05-09 22:12:00,78.8,75.9,29.99,East,90,2.0,4.0,91,0.00,,,0.00,meteohub,2013-05-10 02:12:00,
2013-05-09 22:17:00,78.6,75.7,29.99,East,90,3.0,4.0,91,0.00,,,0.00,meteohub,2013-05-10 02:17:00,
2013-05-09 22:22:00,78.4,75.9,29.99,East,90,1.0,3.0,92,0.00,,,0.00,meteohub,2013-05-10 02:22:00,
2013-05-09 22:27:00,78.1,75.6,29.99,SE,135,0.0,3.0,92,0.00,,,0.00,meteohub,2013-05-10 02:27:00,
2013-05-09 22:32:00,78.1,76.3,29.99,East,90,2.0,4.0,94,0.00,,,0.00,meteohub,2013-05-10 02:32:00,
2013-05-09 22:37:00,78.1,76.3,29.99,East,90,1.0,4.0,94,0.00,,,0.00,meteohub,2013-05-10 02:37:00,
2013-05-09 22:42:00,78.1,76.3,29.99,East,90,2.0,4.0,94,0.00,,,0.00,meteohub,2013-05-10 02:42:00,
2013-05-09 22:47:00,78.1,76.3,29.99,East,90,2.0,4.0,94,0.00,,,0.00,meteohub,2013-05-10 02:47:00,
2013-05-09 22:52:00,77.9,76.1,30.00,SE,135,1.0,2.0,94,0.00,,,0.00,meteohub,2013-05-10 02:52:00,
2013-05-09 22:57:00,77.9,76.1,30.00,SE,135,0.0,2.0,94,0.00,,,0.00,meteohub,2013-05-10 02:57:00,
2013-05-09 23:02:00,77.7,75.9,30.00,SE,135,0.0,2.0,94,0.00,,,0.00,meteohub,2013-05-10 03:02:00,
2013-05-09 23:07:00,77.5,75.7,30.00,SE,135,0.0,2.0,94,0.00,,,0.00,meteohub,2013-05-10 03:07:00,
2013-05-09 23:12:00,77.2,75.6,30.00,SE,135,0.0,0.0,95,0.00,,,0.00,meteohub,2013-05-10 03:12:00,
2013-05-09 23:17:00,77.4,76.1,30.01,East,90,2.0,0.0,96,0.00,,,0.00,meteohub,2013-05-10 03:17:00,
2013-05-09 23:22:00,77.7,76.5,30.01,East,90,2.0,2.0,96,0.00,,,0.00,meteohub,2013-05-10 03:22:00,
2013-05-09 23:27:00,78.1,76.3,30.01,East,90,4.0,5.0,94,0.00,,,0.00,meteohub,2013-05-10 03:27:00,
2013-05-09 23:32:00,78.3,76.1,30.01,East,90,2.0,5.0,93,0.00,,,0.00,meteohub,2013-05-10 03:32:00,
2013-05-09 23:37:00,78.3,76.1,30.01,East,90,2.0,5.0,93,0.00,,,0.00,meteohub,2013-05-10 03:37:00,
2013-05-09 23:42:00,78.3,76.1,30.01,South,180,3.0,4.0,93,0.00,,,0.00,meteohub,2013-05-10 03:42:00,
2013-05-09 23:47:00,78.4,76.3,30.01,South,180,2.0,4.0,93,0.00,,,0.00,meteohub,2013-05-10 03:47:00,
2013-05-09 23:52:00,78.4,76.3,30.01,East,90,3.0,4.0,93,0.00,,,0.00,meteohub,2013-05-10 03:52:00,
2013-05-09 23:57:00,78.4,76.3,30.01,South,180,0.0,4.0,93,0.00,,,0.00,meteohub,2013-05-10 03:57:00,